Time,TemperatureF,DewpointF,PressureIn,WindDirection,WindDirectionDegrees,WindSpeedMPH,WindSpeedGustMPH,Humidity,HourlyPrecipIn,Conditions,Clouds,dailyrainin,SoftwareType,DateUTC
2013-12-17 00:02:00,34.7,34.4,30.28,ESE,112,0.0,-999.0,99,-99.99,,,0.00,Acu-Link.com,2013-12-17 06:02:00,
2013-12-17 00:17:00,33.8,33.5,30.28,WSW,247,0.0,-999.0,99,-99.99,,,0.00,Acu-Link.com,2013-12-17 06:17:00,
2013-12-17 00:33:00,34.5,34.3,30.28,SW,225,0.0,-999.0,99,-99.99,,,0.00,Acu-Link.com,2013-12-17 06:33:00,
2013-12-17 00:48:00,34.7,34.4,30.27,NNW,337,0.0,-999.0,99,-99.99,,,0.00,Acu-Link.com,2013-12-17 06:48:00,
2013-12-17 01:03:00,34.2,33.9,30.27,South,180,0.0,-999.0,99,-99.99,,,0.00,Acu-Link.com,2013-12-17 07:03:00,
2013-12-17 01:18:00,33.3,33.0,30.27,SSW,202,0.0,-999.0,99,-99.99,,,0.00,Acu-Link.com,2013-12-17 07:18:00,
2013-12-17 01:34:00,33.1,32.8,30.27,SSW,202,0.0,-999.0,99,-99.99,,,0.00,Acu-Link.com,2013-12-17 07:34:00,
2013-12-17 01:49:00,33.8,33.5,30.27,ESE,112,0.0,-999.0,99,-99.99,,,0.00,Acu-Link.com,2013-12-17 07:49:00,
2013-12-17 02:04:00,33.8,33.5,30.27,East,90,0.0,-999.0,99,-99.99,,,0.00,Acu-Link.com,2013-12-17 08:04:00,
2013-12-17 02:19:00,34.5,34.3,30.27,North,0,2.2,-999.0,99,-99.99,,,0.00,Acu-Link.com,2013-12-17 08:19:00,
2013-12-17 02:35:00,34.3,34.1,30.28,West,270,1.1,-999.0,99,-99.99,,,0.00,Acu-Link.com,2013-12-17 08:35:00,
2013-12-17 02:50:00,33.3,33.0,30.29,WSW,247,0.0,-999.0,99,-99.99,,,0.00,Acu-Link.com,2013-12-17 08:50:00,
2013-12-17 03:05:00,32.5,32.3,30.28,ESE,112,0.0,-999.0,99,-99.99,,,0.00,Acu-Link.com,2013-12-17 09:05:00,
2013-12-17 03:20:00,31.8,31.6,30.28,South,180,0.0,-999.0,99,-99.99,,,0.00,Acu-Link.com,2013-12-17 09:20:00,
2013-12-17 03:36:00,31.1,30.9,30.29,NNW,337,0.0,-999.0,99,-99.99,,,0.00,Acu-Link.com,2013-12-17 09:36:00,
2013-12-17 03:51:00,31.1,30.9,30.28,ESE,112,0.0,-999.0,99,-99.99,,,0.00,Acu-Link.com,2013-12-17 09:51:00,
2013-12-17 04:06:00,30.7,30.5,30.29,East,90,0.0,-999.0,99,-99.99,,,0.00,Acu-Link.com,2013-12-17 10:06:00,
2013-12-17 04:21:00,30.6,30.3,30.29,ESE,112,0.0,-999.0,99,-99.99,,,0.00,Acu-Link.com,2013-12-17 10:21:00,
2013-12-17 04:37:00,30.6,30.3,30.29,ESE,112,0.0,-999.0,99,-99.99,,,0.00,Acu-Link.com,2013-12-17 10:37:00,
2013-12-17 04:52:00,30.6,30.3,30.30,WNW,292,0.0,-999.0,99,-99.99,,,0.00,Acu-Link.com,2013-12-17 10:52:00,
2013-12-17 05:07:00,31.3,31.0,30.30,North,0,0.0,-999.0,99,-99.99,,,0.00,Acu-Link.com,2013-12-17 11:07:00,
2013-12-17 05:23:00,30.0,29.8,30.30,South,180,0.0,-999.0,99,-99.99,,,0.00,Acu-Link.com,2013-12-17 11:23:00,
2013-12-17 05:38:00,29.8,29.6,30.30,ESE,112,0.0,-999.0,99,-99.99,,,0.00,Acu-Link.com,2013-12-17 11:38:00,
2013-12-17 05:53:00,29.5,29.2,30.31,South,180,0.0,-999.0,99,-99.99,,,0.00,Acu-Link.com,2013-12-17 11:53:00,
2013-12-17 06:08:00,29.7,29.4,30.31,SSW,202,0.0,-999.0,99,-99.99,,,0.00,Acu-Link.com,2013-12-17 12:08:00,
2013-12-17 06:23:00,29.3,29.1,30.31,South,180,0.0,-999.0,99,-99.99,,,0.00,Acu-Link.com,2013-12-17 12:23:00,
2013-12-17 06:39:00,29.5,29.2,30.32,NW,315,0.0,-999.0,99,-99.99,,,0.00,Acu-Link.com,2013-12-17 12:39:00,
2013-12-17 06:54:00,30.0,29.8,30.32,SE,135,1.6,-999.0,99,-99.99,,,0.00,Acu-Link.com,2013-12-17 12:54:00,
2013-12-17 07:09:00,29.5,29.2,30.33,NE,45,0.0,-999.0,99,-99.99,,,0.00,Acu-Link.com,2013-12-17 13:09:00,
2013-12-17 07:25:00,29.7,29.4,30.33,ESE,112,0.0,-999.0,99,-99.99,,,0.00,Acu-Link.com,2013-12-17 13:25:00,
2013-12-17 07:40:00,31.3,31.0,30.34,South,180,1.6,-999.0,99,-99.99,,,0.00,Acu-Link.com,2013-12-17 13:40:00,
2013-12-17 07:55:00,33.1,32.8,30.34,ESE,112,0.0,-999.0,99,-99.99,,,0.00,Acu-Link.com,2013-12-17 13:55:00,
2013-12-17 08:11:00,35.2,35.0,30.34,South,180,0.0,-999.0,99,-99.99,,,0.00,Acu-Link.com,2013-12-17 14:11:00,
2013-12-17 08:26:00,39.4,39.1,30.33,SE,135,1.6,-999.0,99,-99.99,,,0.00,Acu-Link.com,2013-12-17 14:26:00,
2013-12-17 08:41:00,41.5,41.3,30.34,SE,135,2.2,-999.0,99,-99.99,,,0.00,Acu-Link.com,2013-12-17 14:41:00,
2013-12-17 08:56:00,42.1,41.8,30.34,South,180,1.6,-999.0,99,-99.99,,,0.00,Acu-Link.com,2013-12-17 14:56:00,
2013-12-17 09:12:00,45.9,44.8,30.34,SSW,202,1.6,-999.0,96,-99.99,,,0.00,Acu-Link.com,2013-12-17 15:12:00,
2013-12-17 09:27:00,49.1,46.0,30.35,NNE,22,1.1,-999.0,89,-99.99,,,0.00,Acu-Link.com,2013-12-17 15:27:00,
2013-12-17 09:42:00,50.9,46.9,30.35,WSW,247,2.2,-999.0,86,-99.99,,,0.00,Acu-Link.com,2013-12-17 15:42:00,
2013-12-17 09:58:00,53.8,48.7,30.35,South,180,2.2,-999.0,83,-99.99,,,0.00,Acu-Link.com,2013-12-17 15:58:00,
2013-12-17 10:13:00,55.6,48.1,30.35,West,270,4.7,-999.0,76,-99.99,,,0.00,Acu-Link.com,2013-12-17 16:13:00,
2013-12-17 10:28:00,57.0,48.5,30.35,West,270,2.7,-999.0,73,-99.99,,,0.00,Acu-Link.com,2013-12-17 16:28:00,
2013-12-17 10:44:00,57.9,48.2,30.35,NW,315,3.8,-999.0,70,-99.99,,,0.00,Acu-Link.com,2013-12-17 16:44:00,
2013-12-17 10:59:00,59.2,48.6,30.34,NW,315,2.7,-999.0,68,-99.99,,,0.00,Acu-Link.com,2013-12-17 16:59:00,
2013-12-17 11:14:00,60.6,43.9,30.32,West,270,4.7,-999.0,54,-99.99,,,0.00,Acu-Link.com,2013-12-17 17:14:00,
2013-12-17 11:29:00,61.9,44.1,30.32,WSW,247,3.8,-999.0,52,-99.99,,,0.00,Acu-Link.com,2013-12-17 17:29:00,
2013-12-17 11:45:00,63.0,42.4,30.32,West,270,7.4,-999.0,47,-99.99,,,0.00,Acu-Link.com,2013-12-17 17:45:00,
2013-12-17 12:00:00,63.7,44.7,30.31,WNW,292,6.3,-999.0,50,-99.99,,,0.00,Acu-Link.com,2013-12-17 18:00:00,
2013-12-17 12:15:00,63.9,44.3,30.30,West,270,6.7,-999.0,49,-99.99,,,0.00,Acu-Link.com,2013-12-17 18:15:00,
2013-12-17 12:31:00,64.2,44.7,30.29,WNW,292,2.7,-999.0,49,-99.99,,,0.00,Acu-Link.com,2013-12-17 18:31:00,
2013-12-17 12:46:00,64.0,43.9,30.28,SSE,157,0.0,-999.0,48,-99.99,,,0.00,Acu-Link.com,2013-12-17 18:46:00,
2013-12-17 13:01:00,65.5,45.3,30.28,SW,225,3.8,-999.0,48,-99.99,,,0.00,Acu-Link.com,2013-12-17 19:01:00,
2013-12-17 13:16:00,65.5,45.3,30.27,WSW,247,3.1,-999.0,48,-99.99,,,0.00,Acu-Link.com,2013-12-17 19:16:00,
2013-12-17 13:32:00,66.2,46.5,30.26,NNE,22,5.8,-999.0,49,-99.99,,,0.00,Acu-Link.com,2013-12-17 19:32:00,
2013-12-17 13:47:00,66.6,45.1,30.25,NNW,337,2.2,-999.0,46,-99.99,,,0.00,Acu-Link.com,2013-12-17 19:47:00,
2013-12-17 14:02:00,66.6,45.1,30.25,NNW,337,5.1,-999.0,46,-99.99,,,0.00,Acu-Link.com,2013-12-17 20:02:00,
2013-12-17 14:17:00,66.4,43.8,30.24,North,0,3.1,-999.0,44,-99.99,,,0.00,Acu-Link.com,2013-12-17 20:17:00,
2013-12-17 14:33:00,67.1,43.9,30.24,NW,315,1.6,-999.0,43,-99.99,,,0.00,Acu-Link.com,2013-12-17 20:33:00,
2013-12-17 14:48:00,67.8,43.9,30.24,WSW,247,2.7,-999.0,42,-99.99,,,0.00,Acu-Link.com,2013-12-17 20:48:00,
2013-12-17 15:04:00,67.1,44.5,30.24,NE,45,1.6,-999.0,44,-99.99,,,0.00,Acu-Link.com,2013-12-17 21:04:00,
2013-12-17 15:19:00,67.5,44.2,30.25,NNW,337,2.2,-999.0,43,-99.99,,,0.00,Acu-Link.com,2013-12-17 21:19:00,
2013-12-17 15:34:00,67.1,43.9,30.25,ESE,112,1.6,-999.0,43,-99.99,,,0.00,Acu-Link.com,2013-12-17 21:34:00,
2013-12-17 15:50:00,67.3,42.8,30.25,SW,225,0.0,-999.0,41,-99.99,,,0.00,Acu-Link.com,2013-12-17 21:50:00,
2013-12-17 16:05:00,67.3,42.8,30.25,NW,315,0.0,-999.0,41,-99.99,,,0.00,Acu-Link.com,2013-12-17 22:05:00,
2013-12-17 16:20:00,66.6,44.0,30.25,NE,45,0.0,-999.0,44,-99.99,,,0.00,Acu-Link.com,2013-12-17 22:20:00,
2013-12-17 16:36:00,66.4,46.6,30.25,South,180,0.0,-999.0,49,-99.99,,,0.00,Acu-Link.com,2013-12-17 22:36:00,
2013-12-17 16:51:00,59.5,48.2,30.26,West,270,0.0,-999.0,66,-99.99,,,0.00,Acu-Link.com,2013-12-17 22:51:00,
2013-12-17 17:06:00,61.0,47.0,30.25,West,270,0.0,-999.0,60,-99.99,,,0.00,Acu-Link.com,2013-12-17 23:06:00,
2013-12-17 17:21:00,57.4,46.9,30.26,West,270,0.0,-999.0,68,-99.99,,,0.00,Acu-Link.com,2013-12-17 23:21:00,
2013-12-17 17:36:00,55.2,46.7,30.26,WSW,247,0.0,-999.0,73,-99.99,,,0.00,Acu-Link.com,2013-12-17 23:36:00,
2013-12-17 17:52:00,52.3,47.0,30.26,SW,225,0.0,-999.0,82,-99.99,,,0.00,Acu-Link.com,2013-12-17 23:52:00,
2013-12-17 18:07:00,50.4,46.3,30.27,SW,225,0.0,-999.0,86,-99.99,,,0.00,Acu-Link.com,2013-12-18 00:07:00,
2013-12-17 18:22:00,48.7,45.6,30.27,SSW,202,0.0,-999.0,89,-99.99,,,0.00,Acu-Link.com,2013-12-18 00:22:00,
2013-12-17 18:38:00,46.9,44.7,30.27,SSW,202,0.0,-999.0,92,-99.99,,,0.00,Acu-Link.com,2013-12-18 00:38:00,
2013-12-17 18:53:00,46.2,44.6,30.27,SSW,202,0.0,-999.0,94,-99.99,,,0.00,Acu-Link.com,2013-12-18 00:53:00,
2013-12-17 19:08:00,45.5,44.2,30.28,South,180,0.0,-999.0,95,-99.99,,,0.00,Acu-Link.com,2013-12-18 01:08:00,
2013-12-17 19:24:00,44.8,43.4,30.28,South,180,0.0,-999.0,95,-99.99,,,0.00,Acu-Link.com,2013-12-18 01:24:00,
2013-12-17 19:39:00,43.5,41.9,30.28,North,0,0.0,-999.0,94,-99.99,,,0.00,Acu-Link.com,2013-12-18 01:39:00,
2013-12-17 19:54:00,43.2,41.8,30.28,SSW,202,0.0,-999.0,95,-99.99,,,0.00,Acu-Link.com,2013-12-18 01:54:00,
2013-12-17 20:09:00,42.6,41.8,30.29,SW,225,0.0,-999.0,97,-99.99,,,0.00,Acu-Link.com,2013-12-18 02:09:00,
2013-12-17 20:25:00,42.4,42.2,30.29,West,270,0.0,-999.0,99,-99.99,,,0.00,Acu-Link.com,2013-12-18 02:25:00,
2013-12-17 20:40:00,41.5,41.3,30.29,South,180,0.0,-999.0,99,-99.99,,,0.00,Acu-Link.com,2013-12-18 02:40:00,
2013-12-17 20:55:00,41.4,41.1,30.29,SSW,202,0.0,-999.0,99,-99.99,,,0.00,Acu-Link.com,2013-12-18 02:55:00,
2013-12-17 21:10:00,40.6,40.4,30.30,SSE,157,0.0,-999.0,99,-99.99,,,0.00,Acu-Link.com,2013-12-18 03:10:00,
2013-12-17 21:26:00,40.3,40.0,30.30,SE,135,0.0,-999.0,99,-99.99,,,0.00,Acu-Link.com,2013-12-18 03:26:00,
2013-12-17 21:41:00,40.1,39.8,30.30,South,180,0.0,-999.0,99,-99.99,,,0.00,Acu-Link.com,2013-12-18 03:41:00,
2013-12-17 21:56:00,39.9,39.7,30.30,NE,45,0.0,-999.0,99,-99.99,,,0.00,Acu-Link.com,2013-12-18 03:56:00,
2013-12-17 22:12:00,39.6,39.3,30.30,NNW,337,0.0,-999.0,99,-99.99,,,0.00,Acu-Link.com,2013-12-18 04:12:00,
2013-12-17 22:27:00,40.3,40.0,30.31,NNW,337,2.2,-999.0,99,-99.99,,,0.00,Acu-Link.com,2013-12-18 04:27:00,
2013-12-17 22:42:00,39.9,39.7,30.31,NE,45,0.0,-999.0,99,-99.99,,,0.00,Acu-Link.com,2013-12-18 04:42:00,
2013-12-17 22:57:00,39.0,38.8,30.31,SSW,202,0.0,-999.0,99,-99.99,,,0.00,Acu-Link.com,2013-12-18 04:57:00,
2013-12-17 23:13:00,38.7,38.4,30.31,ESE,112,0.0,-999.0,99,-99.99,,,0.00,Acu-Link.com,2013-12-18 05:13:00,
2013-12-17 23:28:00,37.9,37.7,30.31,NNW,337,0.0,-999.0,99,-99.99,,,0.00,Acu-Link.com,2013-12-18 05:28:00,
2013-12-17 23:43:00,38.7,38.4,30.31,NW,315,0.0,-999.0,99,-99.99,,,0.00,Acu-Link.com,2013-12-18 05:43:00,
2013-12-17 23:59:00,38.5,38.2,30.30,NNW,337,0.0,-999.0,99,-99.99,,,0.00,Acu-Link.com,2013-12-18 05:59:00,